Wind_Speed
34 37 37 36 35 33 32 31 29 27 25 23 18 15 16 14 11 11 12 13 12 7 8 7 8 7 6 2 1 4 3 6 7 6 11 8 8 9 11 12 12 12 9
34 34 35 36 35 33 33 32 29 30 26 25 23 19 18 15 12 12 12 13 8 5 6 7 10 9 3 1 3 4 5 10 18 14 13 8 11 10 11 13 14 12 10
31 31 32 33 33 34 32 31 30 29 28 25 21 20 18 17 14 13 13 13 8 6 4 4 7 4 2 3 4 7 9 15 20 20 11 12 12 10 10 11 12 11 9
24 27 28 29 30 31 31 30 27 27 29 29 28 27 23 21 18 15 15 12 10 7 4 2 3 3 4 6 7 9 15 17 19 18 16 13 11 7 6 9 10 8 7
6 7 13 19 22 24 27 28 27 25 26 28 28 25 24 21 19 16 16 14 12 9 6 2 1 2 4 7 10 13 17 20 21 19 12 9 9 10 9 5 8 6 4
28 28 24 15 12 16 22 26 28 28 29 26 26 25 23 23 21 18 19 16 13 11 9 4 2 4 4 5 8 12 15 22 22 16 10 13 13 11 10 9 10 6 1
26 25 27 26 22 19 16 19 25 30 29 30 27 25 27 26 23 21 19 17 16 14 10 7 4 6 7 8 11 13 15 13 14 18 18 17 15 15 14 12 9 6 1
24 23 25 26 26 24 23 23 20 23 27 29 30 31 30 28 26 24 21 19 18 15 12 8 5 7 10 14 17 18 14 12 13 12 12 14 12 14 13 12 10 6 1
19 21 23 25 27 28 27 27 27 21 21 28 31 31 31 30 29 25 22 20 18 14 10 9 7 8 13 17 17 19 15 12 10 12 12 12 12 12 12 12 13 8 1
14 16 18 21 24 25 27 28 27 23 20 23 23 17 14 17 16 19 19 22 20 15 12 12 8 6 14 17 16 17 14 12 10 11 11 14 14 13 13 13 12 12 5
15 15 16 16 18 21 24 22 23 20 12 4 6 3 8 13 15 5 3 16 17 14 13 13 14 12 13 15 16 16 12 8 8 8 10 16 15 15 14 14 13 12 10
16 18 19 16 14 16 20 19 15 9 7 11 14 14 19 22 23 26 20 13 8 22 21 16 17 17 18 17 15 15 12 10 8 10 13 14 15 15 14 13 11 12 8
19 19 20 20 17 16 13 15 13 6 7 15 20 21 23 27 29 34 41 43 34 31 29 22 20 22 23 20 14 15 16 14 12 14 16 15 15 14 13 9 12 13 8
24 23 22 21 22 21 15 11 13 13 15 13 17 20 25 27 30 33 35 43 35 34 30 27 23 24 25 23 18 16 18 18 17 16 16 14 12 13 15 12 11 10 7
28 25 25 24 23 26 21 16 14 17 19 20 24 26 24 25 34 28 26 31 25 28 29 27 25 25 24 22 19 17 20 19 18 16 14 13 12 13 16 17 13 11 8
30 29 27 25 22 24 25 20 18 19 21 23 30 27 28 27 21 22 24 20 25 30 30 27 26 27 27 25 22 18 20 20 20 17 17 18 17 16 17 18 16 14 14
29 29 28 26 25 23 26 21 15 20 20 20 23 26 36 38 32 28 26 30 24 27 24 26 26 27 25 21 19 19 20 20 18 16 19 20 20 22 21 19 19 18 16
28 26 27 29 27 25 25 24 20 17 14 19 18 18 22 30 27 30 25 23 25 25 25 26 26 26 25 22 19 19 18 15 13 14 15 14 15 18 21 21 20 20 19
26 24 26 28 27 26 26 25 19 18 17 19 14 9 11 17 22 27 27 26 25 20 22 24 24 24 21 19 19 18 18 16 13 13 12 11 14 17 19 20 19 19 17
30 30 30 29 27 28 26 18 14 16 18 17 18 14 11 16 21 24 27 29 27 25 25 22 21 21 19 19 18 16 16 15 15 12 12 12 11 10 12 12 10 10 14
31 32 29 29 28 29 25 18 15 16 18 20 20 17 19 18 17 27 28 25 25 26 25 22 22 21 20 17 13 15 15 13 12 12 12 10 10 10 8 7 7 7 7
28 28 29 26 24 25 26 19 17 17 20 19 17 17 18 16 13 15 19 19 16 19 22 24 23 20 18 15 16 14 13 13 12 11 9 8 8 7 8 8 6 4 4
30 27 20 21 23 26 21 17 18 19 19 19 18 21 17 10 13 15 16 14 17 19 17 23 23 20 17 15 13 13 13 11 11 8 8 8 7 6 5 4 4 3 2
22 17 16 17 20 18 17 17 20 22 19 19 20 22 19 18 17 16 18 20 18 18 24 26 22 18 15 12 13 14 12 11 10 10 9 7 8 8 9 6 4 2 2
13 13 15 17 18 17 15 16 19 18 18 19 19 19 19 20 22 23 23 26 27 27 23 22 20 18 15 13 12 10 9 6 6 6 6 6 6 6 6 6 5 3 1
3 1 3 5 6 5 10 16 18 19 20 21 22 22 23 25 28 28 28 26 23 21 19 19 19 16 15 13 10 6 4 5 7 7 7 7 8 8 7 6 6 5 4
Wind_Direction
237 239 241 244 245 245 245 247 248 247 245 250 257 251 230 247 264 260 270 283 293 306 314 323 328 329 329 358 140 152 170 171 127 105 132 121 92 84 85 91 98 104 108
243 243 245 247 247 247 249 250 252 250 249 246 250 235 240 253 265 266 270 285 290 288 301 325 340 342 338 173 165 158 156 149 140 132 139 122 108 102 96 98 94 95 101
246 246 246 248 249 248 246 249 251 251 250 244 238 236 243 255 265 260 270 279 268 265 268 314 342 8 219 199 182 161 154 149 151 147 136 138 133 121 107 106 101 103 102
244 243 247 252 255 258 256 250 248 248 250 249 244 245 250 259 260 255 265 267 244 237 239 297 347 91 198 207 185 164 156 153 153 146 140 147 148 152 147 121 110 116 124
34 292 279 272 269 268 265 262 258 250 247 252 252 248 248 248 244 248 258 252 229 221 220 257 6 167 205 200 190 169 167 157 156 151 144 158 171 160 165 168 123 127 147
48 43 37 16 316 292 283 275 268 260 256 250 251 251 246 242 236 240 253 239 227 219 209 201 175 182 203 195 186 175 177 168 164 160 165 172 189 189 172 175 145 138 193
52 42 32 22 11 4 338 292 278 273 268 262 254 249 247 240 235 238 243 225 220 213 207 195 174 183 192 189 170 168 169 194 189 180 184 194 192 195 187 185 194 162 163
39 32 29 21 12 2 356 353 327 290 275 270 264 255 247 244 236 230 230 217 210 207 201 188 194 190 193 182 169 171 171 179 200 203 212 206 204 195 204 186 188 189 87
20 16 12 9 5 1 354 346 343 334 287 263 262 261 251 243 239 233 211 203 200 197 196 185 178 177 179 180 175 178 189 189 222 234 230 218 208 203 202 199 176 181 122
2 4 2 357 354 354 351 344 339 332 305 283 270 282 262 252 226 205 203 199 191 192 190 186 184 183 183 183 187 183 196 204 220 242 223 196 199 206 204 217 202 185 167
326 335 338 339 340 344 345 345 337 332 309 173 172 204 198 174 137 115 241 285 194 196 203 197 192 190 200 193 194 195 213 211 199 220 195 185 187 194 204 210 222 211 201
313 314 314 313 318 331 337 338 339 305 161 145 141 139 152 154 167 189 194 133 235 218 214 211 202 193 195 201 206 204 209 217 197 196 184 184 183 191 194 206 220 208 239
306 308 305 301 300 312 322 324 320 275 181 160 151 153 160 159 167 185 200 181 205 219 213 211 204 191 191 203 208 203 205 211 198 193 192 196 196 188 191 200 199 213 245
292 289 288 292 289 290 293 295 289 269 229 193 181 175 174 174 180 185 189 192 201 207 214 204 194 195 193 197 201 199 205 211 203 204 210 203 207 208 203 204 198 204 221
295 289 283 284 290 279 276 276 287 273 248 233 213 208 207 220 226 229 228 210 219 207 197 188 183 190 192 193 195 198 198 208 206 205 215 212 198 203 208 209 222 221 210
290 285 283 283 285 277 277 272 274 281 270 253 248 242 244 247 237 238 232 217 215 213 191 183 184 192 193 190 191 193 196 206 206 202 224 239 231 211 205 208 219 228 230
285 288 281 279 276 270 269 262 262 287 270 273 267 266 251 252 249 250 259 225 214 205 190 191 190 197 194 193 190 193 196 203 209 220 233 241 238 224 217 216 212 217 229
284 280 279 280 277 268 257 262 260 257 259 270 266 273 263 241 243 238 211 185 176 195 202 199 198 197 195 186 181 183 191 196 199 199 216 221 219 214 209 214 219 221 226
271 276 282 281 283 264 258 263 252 260 255 260 266 274 239 222 219 193 184 180 178 187 201 201 199 195 195 183 179 182 196 201 200 192 193 190 201 205 212 214 220 226 226
269 277 277 273 273 265 258 245 240 256 249 236 247 236 191 175 176 177 185 191 190 192 198 193 190 194 193 191 184 184 188 194 202 197 193 189 182 181 180 187 191 197 213
272 272 275 271 268 264 255 246 232 247 237 238 238 232 214 194 183 180 187 194 200 202 201 194 183 187 192 183 191 181 178 182 186 192 201 191 181 177 194 206 202 197 210
266 272 272 264 262 258 253 246 238 241 231 226 219 196 193 196 185 186 191 194 197 203 189 183 181 178 185 176 197 190 179 177 173 177 175 177 168 161 162 162 163 168 194
264 258 255 255 255 254 253 251 239 234 216 211 199 186 178 190 186 189 193 190 195 194 185 179 170 164 166 170 187 208 208 192 179 185 187 184 178 179 173 160 152 158 171
258 238 236 249 254 252 248 230 218 221 202 184 182 181 172 172 171 167 166 165 164 170 175 164 157 156 156 170 183 186 185 181 180 200 198 215 229 219 219 206 207 221 230
232 237 247 248 252 254 246 212 192 186 175 172 165 165 164 157 148 144 142 141 139 135 133 136 136 139 143 154 172 173 171 180 195 199 192 181 194 188 174 161 164 176 184
185 200 287 281 282 264 193 167 161 163 156 155 151 154 154 152 150 142 138 137 137 136 136 149 149 145 143 156 156 140 163 170 161 151 146 155 161 147 140 136 129 114 98
Height
770 773 776 778 780 783 785 786 788 791 792 792 793 793 794 794 794 794 793 792 790 791 790 789 787 784 784 784 784 784 784 784 789 794 796 798 798 798 798 797 797 797 799
765 769 771 773 775 778 780 781 783 785 786 787 789 789 790 792 792 792 790 788 789 789 789 788 788 787 786 785 784 784 785 786 788 793 798 799 800 801 801 800 800 801 803
761 763 766 768 770 771 772 774 777 779 781 782 784 785 787 789 789 789 787 787 786 787 785 785 784 783 785 785 784 784 785 788 791 794 798 801 802 803 804 804 802 804 807
755 759 762 764 766 768 769 769 770 773 775 776 778 780 783 783 784 786 785 785 784 784 784 783 781 781 782 784 785 786 786 789 793 797 800 802 803 805 806 807 805 807 809
759 764 766 765 765 766 766 766 768 767 767 769 773 775 776 777 779 781 780 781 781 781 783 783 782 782 781 781 781 785 788 788 791 797 801 803 805 805 807 808 807 810 811
764 765 766 764 763 762 762 762 763 763 764 765 767 771 771 771 772 774 775 776 778 780 780 781 780 782 783 783 783 784 788 790 791 795 800 802 804 805 807 809 808 810 812
766 766 765 764 763 762 760 758 757 757 760 762 763 764 764 765 768 770 772 773 775 778 779 779 778 780 781 783 785 787 786 793 791 792 797 800 801 804 806 809 810 809 810
767 767 763 764 764 762 759 755 754 753 754 756 756 756 757 760 762 763 765 768 771 773 774 776 778 779 781 782 783 786 787 789 794 793 795 798 800 802 805 808 810 811 811
772 768 764 761 760 759 757 755 752 750 749 748 746 747 750 752 756 761 765 767 772 775 777 775 774 775 778 781 781 785 788 787 792 794 795 796 799 801 804 808 811 813 813
772 768 765 763 760 759 757 752 749 746 742 741 743 743 742 750 757 760 764 764 768 774 774 772 774 778 777 779 780 784 787 787 789 792 792 794 797 799 802 806 808 812 813
770 766 764 761 759 758 756 753 748 742 737 737 736 737 738 740 742 755 762 769 766 771 772 772 771 771 779 778 777 779 785 787 785 790 792 794 795 798 801 804 807 810 812
766 763 761 758 756 754 752 750 747 743 739 735 734 735 736 735 729 729 740 736 747 759 761 765 768 767 775 777 776 777 783 786 784 790 793 794 794 797 801 804 806 808 810
761 758 756 754 752 750 749 747 745 742 740 735 734 734 735 734 732 728 725 720 735 745 748 753 759 760 768 775 774 775 780 783 782 786 790 795 796 797 801 803 805 807 808
757 754 751 748 746 745 743 743 742 741 739 737 734 733 732 731 730 728 721 719 722 727 742 748 752 760 763 767 769 770 776 780 780 783 790 792 795 797 799 802 805 806 808
750 746 744 741 739 737 735 735 735 735 736 734 731 729 729 727 726 728 729 725 732 732 739 746 750 757 761 763 764 767 772 778 779 780 788 791 791 794 797 800 803 805 806
741 739 736 733 731 729 727 727 728 728 727 728 727 726 723 722 723 724 726 726 731 736 739 743 747 752 756 757 760 765 769 776 777 777 784 788 788 789 794 796 800 804 806
732 731 728 726 724 721 719 720 721 720 719 719 718 715 715 714 717 718 721 724 730 735 737 740 743 749 752 757 759 761 766 773 775 776 779 782 783 784 790 794 794 798 802
723 722 721 718 715 713 711 710 713 714 714 712 712 710 706 706 709 712 716 720 726 733 736 737 742 746 750 752 755 759 767 772 770 771 776 778 779 780 784 787 791 794 797
715 713 712 711 709 706 705 703 705 707 708 706 704 705 704 704 705 706 711 714 720 727 732 738 742 744 749 749 754 758 764 768 769 770 774 776 777 778 781 782 785 789 793
706 704 704 702 701 699 698 697 699 701 701 701 701 701 703 705 705 706 710 715 720 725 730 732 736 743 746 751 752 756 761 763 767 769 773 775 776 778 780 782 782 785 788
698 697 695 695 693 692 692 692 693 695 696 695 695 697 699 700 702 703 708 714 717 721 726 730 736 741 745 747 752 756 758 762 766 768 772 772 774 775 780 782 782 784 788
689 689 688 687 686 686 686 686 688 689 691 691 693 695 697 700 703 705 709 712 716 722 724 729 735 739 745 743 754 757 758 762 764 770 772 774 773 775 778 779 782 785 787
681 680 681 680 680 679 680 680 682 685 686 687 689 692 694 699 701 704 706 710 715 721 724 729 733 736 744 749 754 758 760 762 764 767 770 773 773 775 778 779 779 781 784
672 673 674 674 675 674 674 673 675 678 680 683 687 690 694 697 703 706 707 711 715 718 720 726 732 737 742 751 757 759 760 762 764 767 767 771 774 774 777 776 778 781 783
668 669 670 669 669 669 669 669 670 673 677 682 685 689 694 698 702 706 709 710 714 720 724 730 733 740 746 753 762 762 760 760 763 765 766 767 774 776 776 774 776 780 781
667 667 667 667 666 665 665 666 668 672 676 680 685 689 693 698 703 707 710 714 720 722 726 735 738 743 745 755 760 756 759 762 762 763 765 770 774 774 775 776 776 777 781